Weather History for Laredo, TX

Change the Weather History Date:

Sunday, November 20, 2011

  Actual Average Record
Temperature  
Mean Temperature 83 °F 64 °F  
Max Temperature 93 °F 75 °F 93 °F (2011)
Min Temperature 72 °F 53 °F 28 °F (1969)
Degree Days  
Heating Degree Days 0 4  
Month to date heating degree days 26 49  
Since 1 July heating degree days 35 61  
Cooling Degree Days 18 3  
Month to date cooling degree days 153 101  
Year to date cooling degree days 5618 4230  
Growing Degree Days 31 (Base 50)    
Moisture  
Dew Point 65 °F    
Average Humidity 62    
Maximum Humidity 84    
Minimum Humidity 37    
Precipitation  
Precipitation 0.00 in 0.03 in 1.70 in (1985)
Month to date precipitation 0.20 0.85  
Year to date precipitation 4.41 18.98  
Sea Level Pressure  
Sea Level Pressure 29.94 in    
Wind  
Wind Speed 13 mph (SSE)    
Max Wind Speed 20 mph    
Max Gust Speed 24 mph    
Visibility 10 miles    
Events      
T = Trace of Precipitation, MM = Missing Value Source: NWS Daily Summary

Daily Weather History Graph

Daily Weather History Graph

Search for Another Location

Airport:

Trip Planner

Search our weather history database for the weather conditions in past years. The results will help you decide how hot, cold, wet, or windy it might be!

Date:

Astronomy

Nov. 20, 2011 Rise Set
Actual Time 7:02 AM CST 5:44 PM CST
Civil Twilight 6:37 AM CST 6:09 PM CST
Nautical Twilight 6:09 AM CST 6:37 PM CST
Astronomical Twilight 5:41 AM CST 7:05 PM CST
Moon 1:57 AM CST (11/20) 2:12 PM CST (11/20)
Length of Visible Light 11h 31m
Length of Day
10h 41m
Waning Crescent, 27% of the Moon is Illuminated
Nov 20
Waning Crescent
Nov 25
New
Dec 2
First Quarter
Dec 10
Full
Dec 17
Last Quarter

Hourly Weather History & Observations

Time (CST) Temp. Heat Index Dew Point Humidity Pressure Visibility Wind Dir Wind Speed Gust Speed Precip Events Conditions
12:56 AM 74.8 °F - 66.9 °F 76% 29.88 in 10.0 mi SSE 15.0 mph - N/A   Clear
1:56 AM 74.8 °F - 66.9 °F 76% 29.88 in 10.0 mi SSE 12.7 mph - N/A   Clear
2:56 AM 73.9 °F - 68.0 °F 82% 29.88 in 10.0 mi SSE 15.0 mph - N/A   Clear
3:56 AM 72.9 °F - 66.9 °F 82% 29.87 in 10.0 mi SSE 13.8 mph - N/A   Clear
4:56 AM 72.9 °F - 66.9 °F 82% 29.89 in 10.0 mi SSE 9.2 mph - N/A   Clear
5:56 AM 71.6 °F - 66.2 °F 83% 29.95 in 10.0 mi SSE 6.9 mph - N/A   Clear
6:56 AM 72.0 °F - 66.9 °F 84% 29.94 in 10.0 mi SSE 8.1 mph - N/A   Clear
7:56 AM 72.9 °F - 66.9 °F 82% 29.96 in 10.0 mi SSE 6.9 mph - N/A   Mostly Cloudy
8:56 AM 75.9 °F - 66.9 °F 74% 29.98 in 10.0 mi SSE 16.1 mph - N/A   Mostly Cloudy
9:56 AM 79.0 °F - 66.9 °F 66% 29.99 in 10.0 mi South 16.1 mph - N/A   Scattered Clouds
10:56 AM 82.9 °F 85.0 °F 65.8 °F 56% 29.99 in 10.0 mi South 17.3 mph - N/A   Clear
11:56 AM 86.0 °F 87.3 °F 64.4 °F 48% 30.00 in 10.0 mi South 13.8 mph - N/A   Clear
12:56 PM 88.0 °F 89.0 °F 63.9 °F 44% 29.94 in 10.0 mi South 10.4 mph - N/A   Clear
1:56 PM 90.9 °F 92.3 °F 63.9 °F 41% 29.91 in 10.0 mi South 9.2 mph 20.7 mph N/A   Clear
2:56 PM 91.9 °F 92.9 °F 63.0 °F 38% 29.88 in 10.0 mi SSE 13.8 mph - N/A   Clear
3:56 PM 91.9 °F 92.5 °F 61.9 °F 37% 29.88 in 10.0 mi SSE 11.5 mph - N/A   Clear
4:56 PM 91.4 °F 91.4 °F 60.8 °F 36% 29.92 in 10.0 mi SSE 12.7 mph - N/A   Clear
5:56 PM 88.0 °F 89.6 °F 64.9 °F 46% 29.91 in 10.0 mi SE 16.1 mph - N/A   Clear
6:56 PM 84.9 °F 86.6 °F 64.9 °F 51% 29.94 in 10.0 mi SE 11.5 mph - N/A   Clear
7:56 PM 82.9 °F 85.0 °F 65.8 °F 56% 29.96 in 10.0 mi SE 15.0 mph - N/A   Clear
8:56 PM 79.9 °F - 61.9 °F 54% 29.97 in 10.0 mi SE 15.0 mph - N/A   Clear
9:56 PM 77.9 °F - 61.0 °F 56% 29.99 in 10.0 mi SE 13.8 mph - N/A   Clear
10:56 PM 75.9 °F - 61.9 °F 62% 30.00 in 10.0 mi SSE 11.5 mph - N/A   Clear
11:56 PM 74.8 °F - 63.0 °F 66% 29.99 in 10.0 mi SSE 11.5 mph - N/A   Clear